User: anonymous   Login
Location: Unspecified
(0.0000°N, 0.0000°E)
Time: 03:36:20
(UTC+00:00)
Language:

USA 224 - Orbit

View from above orbital plane
View from above orbital plane
View from above satellite
View from above satellite

Ground track
Ground track

The orbit data is extracted from the following two-line orbital elements,

1 37348U 11002A   16228.97920181 0.00021000  00000-0  19697-3 0    06
2 37348  97.8983 339.5367 0526746 128.9564 231.0435 14.79619028    07
Epoch (UTC): 15 August 2016 23:30:03
Eccentricity: 0.0526746
inclination: 97.8983°
perigee height: 261 km
apogee height: 1000 km
right ascension of ascending node: 339.5367°
argument of perigee: 128.9564°
revolutions per day: 14.79619028
mean anomaly at epoch: 231.0435°
orbit number at epoch: 0

The dashed part of the orbit path shows where the satellite is in the earth's shadow,  

DLR